[[{"header":{"parameterUnit":"m.s-1","parameterCategory":1,"la1":30.2991,"la2":30.254,"lo1":-89.0895,"lo2":-89.0444,"dy":0.0017,"dx":0.0017,"nx":28,"ny":28,"refTime":"2024-08-12T09:00:00:Z","depth":0,"parameterNumber":2,"parameterNumberName":"U-component_of_WINDS"},"data":[0,0,0,0,0,0,0,0,0,0,0,0,0,0,0,0,0,0,0,0,0,0,0,0,0,0,0,0,0,0,0,0,0,0,0,0,0,0,0,0,0,0,0,0,0,0,0,0,0,0,0,0,0,0,0,0,0,0,1.7973,1.7973,0,1.7971,1.7971,1.7971,1.7912,1.791,1.7909,1.7907,1.7907,1.7909,1.791,0,0,0,0,0,0,0,0,0,0,0,0,0,1.793,1.7931,1.7973,1.7973,1.7973,1.7971,1.7971,1.7971,1.7912,1.791,1.7908,1.7907,1.7907,1.7908,1.791,0,0,0,0,0,0,0,0,0,0,0,0,0,1.794,1.7931,1.7973,1.7943,1.7941,1.7971,1.7971,1.7971,1.7912,1.791,1.7908,1.7906,1.7906,1.7908,1.791,1.797,0,0,1.7917,1.7918,0,0,0,0,0,0,0,0,1.794,1.7942,1.7948,1.7945,1.7942,1.7939,1.7956,1.7971,1.7913,1.7923,1.7907,1.7905,1.792,1.7921,1.7925,1.797,1.797,1.7917,1.7918,1.7919,1.792,0,0,0,0,0,0,0,1.7939,1.7942,1.7972,1.7948,1.7945,1.7931,1.793,1.7958,1.7935,1.7922,1.7918,1.7918,1.7918,1.7924,1.7925,1.797,1.7917,1.7919,1.792,1.7921,1.8065,1.8067,0,0,0,0,0,0,1.7942,1.7941,1.7972,1.7972,1.7935,1.7934,1.7933,1.7943,1.7934,1.793,1.792,1.7916,1.7921,1.7923,1.7925,1.7995,1.7919,1.7921,1.7923,1.8062,1.8065,1.8068,0,0,0,0,0,0,1.7941,1.7945,1.7972,1.7956,1.7958,1.7937,1.7949,1.7944,1.7949,1.7933,1.7928,1.793,1.7919,1.7922,1.7959,1.7994,1.7922,1.7924,1.8059,1.8063,1.8067,1.8135,0,0,0,0,0,0,1.794,1.7945,1.7967,1.7957,1.7959,1.8006,1.7951,1.7945,1.7953,1.7947,1.7941,1.7937,1.7918,1.7956,1.7961,1.7996,1.7926,1.8056,1.8061,1.8066,1.813,1.8141,1.815,0,0,0,0,0,1.7939,1.7986,1.7968,1.7972,1.7985,1.8008,1.801,1.7985,1.7956,1.7978,1.7968,1.7938,1.799,1.7961,1.7966,1.8001,1.8054,1.806,1.8065,1.8125,1.8138,1.815,0,0,0,0,0,0,1.8,1.7984,1.7964,1.8009,1.801,1.7998,1.8024,1.8,1.801,1.8004,1.7974,1.7974,1.8016,1.8013,1.7981,1.806,1.8017,1.8024,1.806,1.8073,1.8083,1.8083,1.7928,0,0,0,0,0,1.8019,1.8038,1.8023,1.8064,1.8066,1.8046,1.8054,1.8036,1.8036,1.8037,1.8029,1.8032,1.8049,1.8061,1.8075,1.8129,1.8128,1.8156,1.8167,1.8175,1.8182,1.8212,1.8225,1.8087,1.8087,1.8087,0,0,1.8058,1.8051,1.8065,1.8076,1.8075,1.8097,1.8046,1.8071,1.8087,1.8041,1.8076,1.8071,1.8072,1.8118,1.8138,1.8117,1.822,1.8182,1.8189,1.8191,1.8219,1.8232,1.8244,1.8091,1.809,1.809,0,0,1.814,1.8136,1.8171,1.8172,1.8171,1.8157,1.8166,1.8158,1.8153,1.8188,1.8154,1.8174,1.8203,1.8206,1.8211,1.8298,1.8271,1.8303,1.8357,1.8387,1.8398,1.8408,1.844,1.8451,1.831,1.831,1.831,0,1.8189,1.8219,1.8192,1.822,1.8226,1.8186,1.8222,1.8224,1.8228,1.8235,1.821,1.8248,1.8245,1.8293,1.8314,1.832,1.833,1.8304,1.8398,1.8408,1.8416,1.8447,1.8459,1.8314,1.8314,1.8313,1.8313,0,1.828,1.8302,1.833,1.8335,1.8345,1.8377,1.8356,1.837,1.8352,1.8341,1.8379,1.8375,1.8389,1.8399,1.8381,1.8445,1.8432,1.8403,1.836,1.8434,1.8462,1.8473,1.832,1.8318,1.8317,1.8316,0,0,1.8398,1.839,1.8401,1.8404,1.8402,1.8419,1.845,1.8464,1.8477,1.8482,1.8508,1.8536,1.851,1.8516,1.8498,1.8525,1.8596,1.8493,1.8493,1.8513,1.8668,1.869,1.8704,1.8578,1.858,1.8582,1.8668,0,1.8479,1.853,1.8508,1.8562,1.8583,1.8546,1.8574,1.8576,1.8568,1.8586,1.8577,1.8598,1.8561,1.8565,1.859,1.8582,1.8626,1.8575,1.8604,1.8605,1.8605,1.8718,1.874,1.8822,1.8679,1.8681,1.8682,0,1.8578,1.8588,1.8644,1.864,1.8648,1.8673,1.8685,1.8702,1.8705,1.8698,1.8706,1.8683,1.8715,1.8672,1.8717,1.8683,1.8693,1.8692,1.8694,1.8696,1.8648,1.8724,1.8847,1.886,1.8699,1.8698,1.8696,0,1.8661,1.8688,1.8726,1.873,1.8725,1.8744,1.8744,1.8744,1.8755,1.8766,1.8773,1.8788,1.8796,1.8809,1.8792,1.8761,1.884,1.8794,1.8836,1.8836,1.8853,1.8852,1.8981,1.886,1.886,1.8859,1.8859,0,1.8753,1.8789,1.8763,1.8786,1.8827,1.8802,1.8843,1.8839,1.884,1.8863,1.8833,1.8855,1.883,1.8851,1.8838,1.8878,1.8882,1.8878,1.8874,1.8881,1.8882,1.8887,1.8882,1.8863,1.8862,1.8861,1.8861,0,1.8851,1.8835,1.8874,1.8868,1.8867,1.8898,1.8893,1.8915,1.8906,1.8935,1.8941,1.8927,1.895,1.8934,1.8957,1.8948,1.9001,1.8989,1.9,1.8997,1.9039,1.9036,1.9176,1.9194,1.9061,1.9062,1.9063,0,1.8911,1.8938,1.8935,1.8948,1.895,1.8971,1.8982,1.896,1.8973,1.898,1.9002,1.9022,1.9037,1.9077,1.9069,1.9087,1.9076,1.9124,1.9078,1.9085,1.9078,1.9077,1.908,1.9133,1.9135,1.9136,1.9137,0,1.9019,1.9011,1.9027,1.9042,1.9056,1.9066,1.9074,1.9087,1.9065,1.9082,1.9105,1.9117,1.9141,1.9163,1.9178,1.9179,1.9155,1.9152,1.9162,1.917,1.9175,1.9174,1.9026,1.9148,1.9147,1.9146,1.9146,1.9145,1.9101,1.9124,1.9126,1.9146,1.915,1.9159,1.918,1.9174,1.9193,1.9211,1.9197,1.9226,1.9231,1.9249,1.9253,1.9276,1.9257,1.9272,1.9276,1.928,1.9286,1.9172,1.9279,1.9279,1.9278,1.9278,1.9278,0,1.9208,1.9208,1.9227,1.924,1.9257,1.9233,1.9241,1.9257,1.9282,1.9288,1.9304,1.9333,1.9354,1.9349,1.9369,1.9388,1.9378,1.9394,1.9393,1.9394,1.9302,1.9291,1.9402,1.9402,1.9402,1.9402,1.9402,1.9402,1.9266,1.9305,1.9297,1.9338,1.9338,1.9365,1.9373,1.9382,1.9387,1.9419,1.9437,1.9434,1.9436,1.9456,1.9476,1.9474,1.9483,1.9503,1.9498,1.9412,1.94,1.9388,1.9378,1.9505,1.9505,1.9588,1.9588,1.9589]},{"header":{"parameterUnit":"m.s-1","parameterCategory":1,"la1":30.2991,"la2":30.254,"lo1":-89.0895,"lo2":-89.0444,"dy":0.0017,"dx":0.0017,"nx":28,"ny":28,"refTime":"2024-08-12T09:00:00:Z","depth":0,"parameterNumber":3,"parameterNumberName":"V-component_of_WINDS"},"data":[0,0,0,0,0,0,0,0,0,0,0,0,0,0,0,0,0,0,0,0,0,0,0,0,0,0,0,0,0,0,0,0,0,0,0,0,0,0,0,0,0,0,0,0,0,0,0,0,0,0,0,0,0,0,0,0,0,0,-1.984,-1.9841,0,-1.9867,-1.9867,-1.9868,-1.9874,-1.9874,-1.9874,-1.9874,-1.9899,-1.99,-1.9901,0,0,0,0,0,0,0,0,0,0,0,0,0,-1.9795,-1.9796,-1.984,-1.9841,-1.9841,-1.9867,-1.9867,-1.9868,-1.9874,-1.9874,-1.9874,-1.9874,-1.9899,-1.99,-1.9901,0,0,0,0,0,0,0,0,0,0,0,0,0,-1.9818,-1.9796,-1.984,-1.9847,-1.9848,-1.9867,-1.9867,-1.9868,-1.9874,-1.9874,-1.9874,-1.9874,-1.9899,-1.99,-1.9901,-1.9913,0,0,-1.9905,-1.9905,0,0,0,0,0,0,0,0,-1.9816,-1.9819,-1.9846,-1.9847,-1.9848,-1.9867,-1.9861,-1.9883,-1.9875,-1.9864,-1.9874,-1.9874,-1.9889,-1.9891,-1.9896,-1.9915,-1.9916,-1.9905,-1.9906,-1.9906,-1.9906,0,0,0,0,0,0,0,-1.9815,-1.9818,-1.9851,-1.9846,-1.9848,-1.985,-1.9852,-1.9865,-1.9877,-1.9865,-1.9866,-1.9869,-1.9889,-1.9895,-1.9897,-1.9916,-1.9905,-1.9906,-1.9907,-1.9907,-1.9949,-1.9949,0,0,0,0,0,0,-1.9812,-1.9817,-1.985,-1.9852,-1.9831,-1.9851,-1.9854,-1.9861,-1.9877,-1.988,-1.9869,-1.9869,-1.9893,-1.9895,-1.9898,-1.9915,-1.9906,-1.9907,-1.9908,-1.9949,-1.9949,-1.9949,0,0,0,0,0,0,-1.9811,-1.9815,-1.9849,-1.9834,-1.9839,-1.9852,-1.986,-1.9862,-1.9868,-1.988,-1.9883,-1.9873,-1.9893,-1.9896,-1.991,-1.9916,-1.9908,-1.9909,-1.9948,-1.9949,-1.9949,-1.9949,0,0,0,0,0,0,-1.981,-1.9814,-1.9819,-1.9834,-1.984,-1.9861,-1.986,-1.9863,-1.987,-1.987,-1.9884,-1.9886,-1.9893,-1.9908,-1.9911,-1.9917,-1.991,-1.9948,-1.9948,-1.9949,-1.9948,-1.9949,-1.995,0,0,0,0,0,-1.9808,-1.9817,-1.9819,-1.9823,-1.9846,-1.9861,-1.9864,-1.9872,-1.987,-1.9875,-1.9884,-1.9886,-1.9915,-1.991,-1.9913,-1.992,-1.9947,-1.9948,-1.9949,-1.9948,-1.9949,-1.995,0,0,0,0,0,0,-1.98,-1.9819,-1.9822,-1.9836,-1.9847,-1.9862,-1.9868,-1.9872,-1.9883,-1.9883,-1.9892,-1.9895,-1.9909,-1.9916,-1.991,-1.9934,-1.9931,-1.9933,-1.9929,-1.993,-1.9931,-1.9929,-1.9911,0,0,0,0,0,-1.98,-1.9812,-1.9827,-1.9838,-1.9844,-1.9855,-1.9862,-1.9868,-1.9879,-1.9884,-1.9893,-1.9904,-1.9916,-1.9923,-1.9935,-1.9949,-1.9953,-1.9956,-1.9957,-1.9957,-1.9958,-1.9969,-1.9971,-1.9952,-1.9952,-1.9952,0,0,-1.98,-1.9812,-1.9818,-1.9837,-1.9846,-1.9858,-1.9859,-1.9871,-1.988,-1.9885,-1.99,-1.9908,-1.9921,-1.9936,-1.9943,-1.9942,-1.9965,-1.9958,-1.9959,-1.996,-1.997,-1.9972,-1.9973,-1.9953,-1.9953,-1.9953,0,0,-1.9806,-1.9815,-1.9826,-1.9837,-1.9852,-1.986,-1.9863,-1.9878,-1.9884,-1.9899,-1.9904,-1.9915,-1.9935,-1.9945,-1.9952,-1.9965,-1.9968,-1.9969,-1.9973,-1.9983,-1.9985,-1.9986,-1.9992,-1.9994,-1.997,-1.997,-1.997,0,-1.9803,-1.9821,-1.9831,-1.9844,-1.9853,-1.986,-1.9872,-1.9881,-1.9899,-1.9905,-1.9904,-1.9931,-1.994,-1.9958,-1.9962,-1.9967,-1.9972,-1.9967,-1.9984,-1.9985,-1.9986,-1.9992,-1.9994,-1.997,-1.997,-1.997,-1.997,0,-1.9819,-1.9831,-1.9839,-1.9857,-1.9867,-1.9879,-1.9891,-1.99,-1.9905,-1.9914,-1.9931,-1.9942,-1.9957,-1.9962,-1.9967,-1.9982,-1.9982,-1.9982,-1.9979,-1.9988,-1.9994,-1.9996,-1.997,-1.997,-1.997,-1.997,0,0,-1.9817,-1.9844,-1.9847,-1.9856,-1.9875,-1.9885,-1.9898,-1.9915,-1.9923,-1.9935,-1.9947,-1.9965,-1.9967,-1.9975,-1.9981,-1.999,-2.0002,-1.999,-1.999,-1.9992,-2.0022,-2.0022,-2.0024,-2.0004,-2.0005,-2.0005,-2.0021,0,-1.9826,-1.9851,-1.9862,-1.9881,-1.9894,-1.9903,-1.9915,-1.9928,-1.9937,-1.995,-1.996,-1.9973,-1.9973,-1.9979,-1.9988,-1.9999,-2.0008,-1.9998,-2.0016,-2.0017,-2.0013,-2.0027,-2.0026,-2.0041,-2.0023,-2.0024,-2.0024,0,-1.9839,-1.9854,-1.9875,-1.9895,-1.9901,-1.9911,-1.9928,-1.994,-1.9956,-1.9962,-1.9974,-1.998,-1.9995,-1.9992,-2.0014,-2.0007,-2.0015,-2.0022,-2.0023,-2.0024,-2.0021,-2.003,-2.0045,-2.0048,-2.0027,-2.0027,-2.0027,0,-1.9837,-1.9863,-1.988,-1.9887,-1.991,-1.9918,-1.9928,-1.9944,-1.9954,-1.9968,-1.9975,-1.9991,-2.0,-2.0013,-2.0024,-2.002,-2.0045,-2.0043,-2.0051,-2.0051,-2.0055,-2.0055,-2.0073,-2.006,-2.006,-2.006,-2.006,0,-1.9846,-1.9859,-1.988,-1.989,-1.9905,-1.9918,-1.9934,-1.9944,-1.9959,-1.9972,-1.998,-1.9992,-2.0006,-2.002,-2.0029,-2.0046,-2.005,-2.0056,-2.0058,-2.0055,-2.0055,-2.0061,-2.006,-2.0061,-2.0061,-2.0061,-2.0061,0,-1.9846,-1.986,-1.988,-1.9901,-1.9907,-1.9918,-1.9936,-1.9947,-1.9958,-1.9974,-1.9979,-1.9996,-2.0013,-2.0026,-2.0047,-2.0054,-2.0073,-2.0075,-2.0068,-2.0069,-2.0077,-2.0077,-2.01,-2.0104,-2.0088,-2.0088,-2.0088,0,-1.9851,-1.9861,-1.9885,-1.9895,-1.9905,-1.9921,-1.9932,-1.9946,-1.9957,-1.9978,-1.9986,-2.0005,-2.002,-2.0048,-2.0062,-2.0079,-2.0082,-2.0089,-2.0084,-2.0082,-2.0083,-2.0082,-2.0084,-2.0089,-2.0089,-2.0089,-2.0089,0,-1.9857,-1.9865,-1.9881,-1.99,-1.9913,-1.9929,-1.9944,-1.9952,-1.9969,-1.9981,-2.0,-2.0012,-2.0036,-2.0055,-2.0074,-2.0084,-2.009,-2.0091,-2.0094,-2.0091,-2.0087,-2.0091,-2.007,-2.009,-2.009,-2.009,-2.009,-2.009,-1.986,-1.9871,-1.9891,-1.9909,-1.9923,-1.9938,-1.995,-1.9963,-1.998,-2.0001,-2.0008,-2.0028,-2.0046,-2.0073,-2.0084,-2.01,-2.01,-2.0104,-2.0105,-2.0106,-2.0107,-2.0085,-2.0104,-2.0104,-2.0104,-2.0104,-2.0104,0,-1.9868,-1.9882,-1.9899,-1.9922,-1.9937,-1.9942,-1.9961,-1.9973,-1.999,-2.0007,-2.0023,-2.0046,-2.0065,-2.0082,-2.0101,-2.0111,-2.0114,-2.0116,-2.0115,-2.0118,-2.0105,-2.0101,-2.0113,-2.0113,-2.0113,-2.0113,-2.0113,-2.0113,-1.9874,-1.9894,-1.9904,-1.9931,-1.9945,-1.9965,-1.9975,-1.999,-2.0004,-2.0029,-2.0046,-2.0057,-2.0075,-2.0096,-2.0114,-2.0119,-2.0126,-2.0127,-2.0132,-2.012,-2.0118,-2.0117,-2.0114,-2.0128,-2.0128,-2.0144,-2.0144,-2.0144]}]]